Weather History for Blackwell, OK

Change the Weather History Date:

Tuesday, October 9, 2012

  Actual Average (KPNC) Record (KPNC)
Temperature  
Mean Temperature 58 °F -  
Max Temperature 73 °F 76 °F 95 °F (1963)
Min Temperature 44 °F 52 °F 23 °F (2000)
Degree Days  
Heating Degree Days 6    
Growing Degree Days 8 (Base 50)    
Moisture  
Dew Point 43 °F    
Average Humidity 59    
Maximum Humidity 81    
Minimum Humidity 41    
Precipitation  
Precipitation 0.00 in - - ()
Sea Level Pressure  
Sea Level Pressure 29.93 in    
Wind  
Wind Speed 10 mph (SE)    
Max Wind Speed 22 mph    
Max Gust Speed 25 mph    
Visibility 10 miles    
Events      
Averages and records for this station are not official NWS values.
T = Trace of Precipitation, MM = Missing Value Source: NWS Daily Summary

Daily Weather History Graph

Daily Weather History Graph

Search for Another Location

Airport:

Trip Planner

Search our weather history database for the weather conditions in past years. The results will help you decide how hot, cold, wet, or windy it might be!

Date:

Astronomy

Oct. 09, 2012 Rise Set
Actual Time 7:31 AM CDT 7:00 PM CDT
Civil Twilight 7:06 AM CDT 7:26 PM CDT
Nautical Twilight 6:36 AM CDT 7:56 PM CDT
Astronomical Twilight 6:06 AM CDT 8:26 PM CDT
Moon 1:18 AM CDT (10/9) 3:20 PM CDT (10/9)
Length of Visible Light 12h 20m
Length of Day
11h 28m
Last Quarter, 36% of the Moon is Illuminated
Oct 9
Last Quarter
Oct 15
New
Oct 21
First Quarter
Oct 29
Full
Nov 6
Last Quarter

Hourly Weather History & Observations

Time (CDT) Temp. Windchill Dew Point Humidity Pressure Visibility Wind Dir Wind Speed Gust Speed Precip Events Conditions
12:15 AM 48.2 °F - 33.8 °F 58% 29.99 in 10.0 mi SSE 4.6 mph - N/A   Clear
12:55 AM 48.2 °F - 33.8 °F 58% 29.98 in 10.0 mi South 5.8 mph - N/A   Clear
1:15 AM 48.2 °F - 33.8 °F 58% 29.97 in 10.0 mi SSE 6.9 mph - N/A   Clear
1:55 AM 46.4 °F 42.9 °F 35.6 °F 66% 29.97 in 10.0 mi SSE 6.9 mph - N/A   Clear
2:35 AM 46.4 °F 42.9 °F 35.6 °F 66% 29.96 in 10.0 mi SE 6.9 mph - N/A   Clear
2:55 AM 44.6 °F 41.4 °F 35.6 °F 71% 29.95 in 10.0 mi ESE 5.8 mph - N/A   Clear
3:15 AM 44.6 °F 40.7 °F 35.6 °F 71% 29.94 in 10.0 mi SE 6.9 mph - N/A   Clear
3:35 AM 44.6 °F 40.7 °F 35.6 °F 71% 29.94 in 10.0 mi SE 6.9 mph - N/A   Clear
3:55 AM 46.4 °F 41.5 °F 35.6 °F 66% 29.93 in 10.0 mi SSE 10.4 mph - N/A   Clear
4:15 AM 46.4 °F 42.4 °F 35.6 °F 66% 29.92 in 10.0 mi SE 8.1 mph - N/A   Clear
4:35 AM 44.6 °F 40.2 °F 35.6 °F 71% 29.91 in 10.0 mi SE 8.1 mph - N/A   Clear
4:55 AM 46.4 °F 41.5 °F 37.4 °F 71% 29.91 in 10.0 mi SSE 10.4 mph - N/A   Clear
5:15 AM 46.4 °F 41.5 °F 37.4 °F 71% 29.90 in 10.0 mi SSE 10.4 mph - N/A   Clear
5:35 AM 46.4 °F 41.5 °F 37.4 °F 71% 29.90 in 10.0 mi SSE 10.4 mph - N/A   Clear
5:55 AM 46.4 °F 41.5 °F 37.4 °F 71% 29.90 in 10.0 mi SE 10.4 mph - N/A   Clear
6:15 AM 46.4 °F 42.4 °F 37.4 °F 71% 29.89 in 10.0 mi SE 8.1 mph - N/A   Clear
6:55 AM 44.6 °F 40.2 °F 39.2 °F 81% 29.88 in 10.0 mi SE 8.1 mph - N/A   Clear
7:15 AM 44.6 °F 40.2 °F 39.2 °F 81% 29.89 in 10.0 mi SE 8.1 mph - N/A   Clear
7:35 AM 44.6 °F 40.2 °F 39.2 °F 81% 29.89 in 10.0 mi SE 8.1 mph - N/A   Clear
7:55 AM 44.6 °F 40.2 °F 39.2 °F 81% 29.88 in 10.0 mi SE 8.1 mph - N/A   Clear
8:15 AM 46.4 °F 42.4 °F 41.0 °F 81% 29.88 in 10.0 mi SE 8.1 mph - N/A   Clear
8:35 AM 48.2 °F - 41.0 °F 76% 29.89 in 10.0 mi SSE 10.4 mph - N/A   Clear
8:55 AM 50.0 °F - 41.0 °F 71% 29.89 in 10.0 mi SSE 12.7 mph - N/A   Clear
9:15 AM 51.8 °F - 42.8 °F 71% 29.88 in 10.0 mi SSE 17.3 mph - N/A   Clear
9:35 AM 53.6 °F - 44.6 °F 72% 29.88 in 10.0 mi South 16.1 mph - N/A   Clear
9:55 AM 55.4 °F - 44.6 °F 67% 29.88 in 10.0 mi South 15.0 mph 19.6 mph N/A   Clear
10:15 AM 57.2 °F - 46.4 °F 67% 29.88 in 10.0 mi South 21.9 mph 25.3 mph N/A   Clear
10:35 AM 59.0 °F - 46.4 °F 63% 29.87 in 10.0 mi South 18.4 mph 24.2 mph N/A   Clear
10:55 AM 60.8 °F - 46.4 °F 59% 29.87 in 10.0 mi South 18.4 mph 23.0 mph N/A   Clear
11:15 AM 62.6 °F - 48.2 °F 59% 29.86 in 10.0 mi South 17.3 mph 24.2 mph N/A   Clear
11:35 AM 66.2 °F - 48.2 °F 52% 29.86 in 10.0 mi SSW 17.3 mph - N/A   Clear
11:55 AM 66.2 °F - 50.0 °F 56% 29.86 in 10.0 mi SSW 20.7 mph 24.2 mph N/A   Partly Cloudy
12:15 PM 68.0 °F - 50.0 °F 52% 29.86 in 10.0 mi SSW 19.6 mph 24.2 mph N/A   Clear
12:35 PM 68.0 °F - 50.0 °F 52% 29.85 in 10.0 mi SSW 16.1 mph 24.2 mph N/A   Clear
12:55 PM 68.0 °F - 50.0 °F 52% 29.85 in 10.0 mi SSW 16.1 mph 24.2 mph N/A   Partly Cloudy
1:15 PM 68.0 °F - 50.0 °F 52% 29.86 in 10.0 mi SW 13.8 mph 21.9 mph N/A   Mostly Cloudy
1:35 PM 68.0 °F - 50.0 °F 52% 29.85 in 10.0 mi SSW 12.7 mph 17.3 mph N/A   Overcast
1:55 PM 69.8 °F - 50.0 °F 49% 29.85 in 10.0 mi SW 11.5 mph 21.9 mph N/A   Overcast
2:15 PM 68.0 °F - 48.2 °F 49% 29.85 in 10.0 mi SW 10.4 mph - N/A   Mostly Cloudy
2:35 PM 69.8 °F - 48.2 °F 46% 29.85 in 10.0 mi WSW 6.9 mph - N/A   Partly Cloudy
2:55 PM 71.6 °F - 48.2 °F 43% 29.85 in 10.0 mi WSW 8.1 mph - N/A   Partly Cloudy
3:15 PM 71.6 °F - 48.2 °F 43% 29.85 in 10.0 mi West 8.1 mph - N/A   Partly Cloudy
3:35 PM 73.4 °F - 50.0 °F 44% 29.86 in 10.0 mi WNW 9.2 mph - N/A   Partly Cloudy
3:55 PM 71.6 °F - 48.2 °F 43% 29.86 in 10.0 mi Calm Calm - N/A   Clear
4:15 PM 73.4 °F - 48.2 °F 41% 29.86 in 10.0 mi NNW 5.8 mph - N/A   Clear
4:35 PM 73.4 °F - 48.2 °F 41% 29.86 in 10.0 mi North 10.4 mph 17.3 mph N/A   Clear
4:55 PM 73.4 °F - 48.2 °F 41% 29.87 in 10.0 mi NNW 8.1 mph - N/A   Clear
5:15 PM 73.4 °F - 48.2 °F 41% 29.88 in 10.0 mi North 6.9 mph - N/A   Clear
5:35 PM 73.4 °F - 48.2 °F 41% 29.89 in 10.0 mi North 13.8 mph - N/A   Clear
5:55 PM 71.6 °F - 46.4 °F 41% 29.90 in 10.0 mi North 12.7 mph - N/A   Clear
6:15 PM 71.6 °F - 46.4 °F 41% 29.91 in 10.0 mi NNE 16.1 mph - N/A   Clear
6:35 PM 68.0 °F - 48.2 °F 49% 29.93 in 10.0 mi NNE 12.7 mph 20.7 mph N/A   Clear
6:55 PM 66.2 °F - 48.2 °F 52% 29.94 in 10.0 mi NNE 11.5 mph - N/A   Clear
7:15 PM 66.2 °F - 48.2 °F 52% 29.95 in 10.0 mi NNE 10.4 mph - N/A   Clear
7:35 PM 64.4 °F - 48.2 °F 56% 29.97 in 10.0 mi NNE 13.8 mph - N/A   Mostly Cloudy
7:55 PM 62.6 °F - 44.6 °F 52% 29.98 in 10.0 mi NNE 16.1 mph 20.7 mph N/A   Scattered Clouds
8:15 PM 60.8 °F - 41.0 °F 48% 30.01 in 10.0 mi NNE 17.3 mph 21.9 mph N/A   Mostly Cloudy
8:35 PM 59.0 °F - 41.0 °F 51% 30.03 in 10.0 mi NNE 12.7 mph - N/A   Overcast
8:55 PM 59.0 °F - 41.0 °F 51% 30.04 in 10.0 mi NNE 17.3 mph 21.9 mph N/A   Overcast
9:15 PM 57.2 °F - 41.0 °F 55% 30.06 in 10.0 mi NNE 13.8 mph - N/A   Overcast
9:35 PM 57.2 °F - 39.2 °F 51% 30.07 in 10.0 mi NNE 15.0 mph 20.7 mph N/A   Mostly Cloudy
9:55 PM 57.2 °F - 41.0 °F 55% 30.08 in 10.0 mi NNE 12.7 mph - N/A   Mostly Cloudy
10:15 PM 55.4 °F - 41.0 °F 58% 30.09 in 10.0 mi NNE 11.5 mph - N/A   Mostly Cloudy
10:35 PM 55.4 °F - 41.0 °F 58% 30.10 in 10.0 mi NNE 11.5 mph - N/A   Mostly Cloudy
10:55 PM 53.6 °F - 41.0 °F 62% 30.11 in 10.0 mi NE 10.4 mph - N/A   Partly Cloudy
11:15 PM 53.6 °F - 41.0 °F 62% 30.12 in 10.0 mi NNE 9.2 mph - N/A   Mostly Cloudy
11:35 PM 53.6 °F - 41.0 °F 62% 30.13 in 10.0 mi NE 8.1 mph - N/A   Scattered Clouds
11:55 PM 51.8 °F - 41.0 °F 67% 30.15 in 10.0 mi NNE 6.9 mph - N/A   Mostly Cloudy